Valley City, ND

7:24 AM CST on November 13, 2019 (GMT -0600)
Valley City

Weather History for KBAC - August, 2019

Change the Weather History Date:

Tuesday, August 27, 2019

  Actual Average (WUND) Record (WUND)
Temperature  
Mean Temperature 58 °F -  
Max Temperature 64 °F - - (-1)
Min Temperature 53 °F - - (-1)
Degree Days  
Heating Degree Days 6    
Growing Degree Days 8 (Base 50)    
Moisture  
Dew Point 55 °F    
Average Humidity 90    
Maximum Humidity 100    
Minimum Humidity 72    
Precipitation  
Precipitation 0.00 in - - ()
Sea Level Pressure  
Sea Level Pressure 29.80 in    
Wind  
Wind Speed 16 mph ()    
Max Wind Speed 31 mph    
Max Gust Speed 38 mph    
Visibility 9.8 miles    
Events Rain    
Averages and records for this station are not official NWS values.
T = Trace of Precipitation, MM = Missing Value Source: Averaged Metar Reports

Daily Weather History Graph

Daily Weather History Graph

Search for Another Location

Airport or City:

Astronomy

Aug. 27, 2019 Rise Set
Actual Time 6:44 AM CDT 8:21 PM CDT
Civil Twilight 6:12 AM CDT 8:53 PM CDT
Nautical Twilight 5:33 AM CDT 9:32 PM CDT
Astronomical Twilight 4:51 AM CDT 10:14 PM CDT
Moon 2:56 AM CDT (8/27) 6:56 PM CDT (8/27)
Length of Visible Light 14h 40m
Length of Day
13h 36m
Waning Crescent, 11% of the Moon is Illuminated
Aug 27
Waning Crescent
Aug 30
New
Sep 5
First Quarter
Sep 13
Full
Sep 21
Last Quarter

Hourly Weather History & Observations

Time (CDT) Temp. Dew Point Humidity Pressure Visibility Wind Dir Wind Speed Gust Speed Precip Events Conditions
12:15 AM 59.0 °F 53.6 °F 82% 29.79 in 10.0 mi West 12.7 mph - N/A   Partly Cloudy
12:35 AM 59.0 °F 55.4 °F 88% 29.79 in 10.0 mi West 15.0 mph - N/A   Mostly Cloudy
12:55 AM 59.0 °F 55.4 °F 88% 29.79 in 10.0 mi West 11.5 mph 18.4 mph N/A   Overcast
1:15 AM 59.0 °F 55.4 °F 88% 29.79 in 10.0 mi West 12.7 mph - N/A   Mostly Cloudy
1:35 AM 59.0 °F 55.4 °F 88% 29.79 in 10.0 mi West 12.7 mph - N/A   Scattered Clouds
1:55 AM 59.0 °F 55.4 °F 88% 29.78 in 10.0 mi West 12.7 mph - N/A   Partly Cloudy
2:15 AM 59.0 °F 55.4 °F 88% 29.78 in 10.0 mi West 11.5 mph - N/A   Partly Cloudy
2:35 AM 57.2 °F 57.2 °F 100% 29.77 in 10.0 mi West 12.7 mph - N/A   Clear
2:55 AM 57.2 °F 57.2 °F 100% 29.77 in 10.0 mi West 13.8 mph - N/A   Clear
3:15 AM 57.2 °F 57.2 °F 100% 29.78 in 10.0 mi West 13.8 mph - N/A   Clear
3:35 AM 57.2 °F 57.2 °F 100% 29.77 in 10.0 mi West 15.0 mph - N/A   Clear
3:55 AM 55.4 °F 55.4 °F 100% 29.77 in 10.0 mi West 13.8 mph - N/A   Clear
4:15 AM 55.4 °F 55.4 °F 100% 29.77 in 10.0 mi West 16.1 mph - N/A   Clear
4:35 AM 55.4 °F 55.4 °F 100% 29.77 in 10.0 mi West 17.3 mph - N/A   Clear
4:55 AM 55.4 °F 55.4 °F 100% 29.77 in 10.0 mi West 13.8 mph 19.6 mph N/A   Clear
5:15 AM 53.6 °F 53.6 °F 100% 29.77 in 10.0 mi West 16.1 mph - N/A   Clear
5:35 AM 53.6 °F 53.6 °F 100% 29.77 in 10.0 mi West 13.8 mph 20.7 mph N/A   Clear
5:55 AM 53.6 °F 53.6 °F 100% 29.77 in 10.0 mi West 17.3 mph - N/A   Clear
6:15 AM 53.6 °F 53.6 °F 100% 29.77 in 10.0 mi West 17.3 mph - N/A   Clear
6:35 AM 53.6 °F 53.6 °F 100% 29.77 in 10.0 mi West 17.3 mph - N/A   Clear
6:55 AM 53.6 °F 53.6 °F 100% 29.77 in 10.0 mi West 18.4 mph - N/A   Clear
7:15 AM 53.6 °F 51.8 °F 94% 29.77 in 10.0 mi West 17.3 mph - N/A   Clear
7:35 AM 53.6 °F 51.8 °F 94% 29.77 in 10.0 mi West 17.3 mph 25.3 mph N/A   Clear
7:55 AM 55.4 °F 51.8 °F 88% 29.77 in 10.0 mi West 16.1 mph 23.0 mph N/A   Clear
8:15 AM 55.4 °F 51.8 °F 88% 29.77 in 10.0 mi West 16.1 mph 24.2 mph N/A   Clear
8:35 AM 57.2 °F 51.8 °F 82% 29.77 in 10.0 mi West 18.4 mph 25.3 mph N/A   Clear
8:55 AM 57.2 °F 51.8 °F 82% 29.77 in 10.0 mi West 17.3 mph - N/A   Scattered Clouds
9:15 AM 57.2 °F 51.8 °F 82% 29.77 in 10.0 mi West 16.1 mph 27.6 mph N/A   Scattered Clouds
9:35 AM 59.0 °F 51.8 °F 77% 29.77 in 10.0 mi WNW 21.9 mph 29.9 mph N/A   Mostly Cloudy
9:55 AM 59.0 °F 51.8 °F 77% 29.77 in 10.0 mi WNW 26.5 mph 33.4 mph N/A   Overcast
10:15 AM 59.0 °F 51.8 °F 77% 29.77 in 10.0 mi West 21.9 mph 28.8 mph N/A   Overcast
10:35 AM 59.0 °F 51.8 °F 77% 29.77 in 10.0 mi WNW 25.3 mph 33.4 mph N/A   Overcast
10:55 AM 57.2 °F 51.8 °F 82% 29.78 in 10.0 mi WNW 24.2 mph 29.9 mph N/A   Overcast
11:15 AM 60.8 °F 51.8 °F 72% 29.78 in 10.0 mi WNW 25.3 mph 32.2 mph N/A   Overcast
11:35 AM 59.0 °F 51.8 °F 77% 29.79 in 10.0 mi WNW 24.2 mph 31.1 mph N/A   Overcast
11:55 AM 59.0 °F 51.8 °F 77% 29.78 in 10.0 mi WNW 23.0 mph 31.1 mph N/A   Overcast
12:15 PM 59.0 °F 53.6 °F 82% 29.79 in 10.0 mi WNW 18.4 mph 28.8 mph N/A   Overcast
12:35 PM 59.0 °F 51.8 °F 77% 29.78 in 10.0 mi West 20.7 mph 28.8 mph N/A   Overcast
12:55 PM 59.0 °F 53.6 °F 82% 29.78 in 10.0 mi WNW 27.6 mph 35.7 mph N/A   Overcast
1:15 PM 59.0 °F 55.4 °F 88% 29.79 in 9.0 mi West 16.1 mph 32.2 mph N/A   Overcast
1:35 PM 59.0 °F 55.4 °F 88% 29.79 in 10.0 mi WNW 24.2 mph 33.4 mph N/A   Overcast
1:55 PM 60.8 °F 55.4 °F 82% 29.79 in 10.0 mi WNW 19.6 mph 28.8 mph N/A   Overcast
2:15 PM 60.8 °F 55.4 °F 82% 29.79 in 10.0 mi WNW 26.5 mph - N/A   Overcast
2:35 PM 64.4 °F 55.4 °F 73% 29.79 in 10.0 mi WNW 26.5 mph 35.7 mph N/A   Light Drizzle
2:55 PM 64.4 °F 55.4 °F 73% 29.79 in 10.0 mi WNW 27.6 mph 35.7 mph N/A   Light Drizzle
3:15 PM 62.6 °F 53.6 °F 72% 29.79 in 10.0 mi WNW 28.8 mph 36.8 mph N/A   Mostly Cloudy
3:35 PM 62.6 °F 55.4 °F 77% 29.80 in 10.0 mi WNW 23.0 mph 36.8 mph N/A   Mostly Cloudy
3:55 PM 64.4 °F 55.4 °F 73% 29.80 in 10.0 mi WNW 31.1 mph 38.0 mph N/A   Overcast
4:15 PM 62.6 °F 55.4 °F 77% 29.80 in 10.0 mi WNW 25.3 mph 34.5 mph N/A   Mostly Cloudy
4:35 PM 62.6 °F 55.4 °F 77% 29.79 in 10.0 mi West 23.0 mph 29.9 mph N/A   Mostly Cloudy
4:55 PM 60.8 °F 60.8 °F 100% 29.80 in 3.0 mi West 17.3 mph 24.2 mph N/A Rain Light Rain
5:35 PM 62.6 °F 57.2 °F 82% 29.80 in 10.0 mi WNW 16.1 mph 27.6 mph N/A   Overcast
5:55 PM 59.0 °F 59.0 °F 100% 29.81 in 7.0 mi WNW 25.3 mph 34.5 mph N/A Rain Light Rain
6:15 PM 60.8 °F 59.0 °F 94% 29.81 in 10.0 mi WNW 23.0 mph 28.8 mph N/A   Mostly Cloudy
6:35 PM 60.8 °F 57.2 °F 88% 29.81 in 10.0 mi WNW 19.6 mph 28.8 mph N/A   Partly Cloudy
6:55 PM 60.8 °F 57.2 °F 88% 29.82 in 10.0 mi WNW 18.4 mph 28.8 mph N/A   Clear
7:15 PM 60.8 °F 59.0 °F 94% 29.82 in 10.0 mi WNW 13.8 mph 21.9 mph N/A   Clear
7:35 PM 60.8 °F 59.0 °F 94% 29.82 in 10.0 mi West 13.8 mph - N/A   Clear
7:55 PM 59.0 °F 59.0 °F 100% 29.83 in 10.0 mi West 13.8 mph 19.6 mph N/A   Clear
8:15 PM 59.0 °F 59.0 °F 100% 29.83 in 10.0 mi West 13.8 mph 24.2 mph N/A   Partly Cloudy
8:35 PM 57.2 °F 57.2 °F 100% 29.84 in 10.0 mi West 13.8 mph - N/A   Partly Cloudy
8:55 PM 57.2 °F 57.2 °F 100% 29.85 in 10.0 mi West 11.5 mph - N/A   Clear
9:15 PM 57.2 °F 57.2 °F 100% 29.85 in 10.0 mi West 11.5 mph 19.6 mph N/A   Mostly Cloudy
9:35 PM 57.2 °F 57.2 °F 100% 29.86 in 10.0 mi West 12.7 mph - N/A   Mostly Cloudy
9:55 PM 57.2 °F 57.2 °F 100% 29.87 in 10.0 mi West 12.7 mph - N/A   Overcast
10:15 PM 57.2 °F 57.2 °F 100% 29.87 in 10.0 mi West 12.7 mph - N/A   Scattered Clouds
10:35 PM 57.2 °F 57.2 °F 100% 29.88 in 10.0 mi WNW 12.7 mph - N/A   Partly Cloudy
10:55 PM 55.4 °F 55.4 °F 100% 29.88 in 10.0 mi WNW 10.4 mph - N/A   Clear
11:15 PM 55.4 °F 55.4 °F 100% 29.88 in 10.0 mi WNW 12.7 mph - N/A   Partly Cloudy
11:35 PM 53.6 °F 53.6 °F 100% 29.88 in 10.0 mi WNW 11.5 mph - N/A   Clear
11:55 PM 53.6 °F 53.6 °F 100% 29.88 in 10.0 mi WNW 9.2 mph - N/A   Clear